Location: Pic du Midi - T1M
(42.9366°N, 0.1426°E)
Time: 12:11:05
(UTC+01:00)

DX 1 - Pass Details

Date: 28 September 2021
Orbit: 618 x 630 km, 98.4° (Epoch: 19 October)

Event Time Altitude Azimuth Distance (km) Brightness Sun altitude
Rises 20:21:56 0° 23° (NNE) 2,898 ? -18.3°
Reaches altitude 10° 20:24:18 10° 33° (NNE) 1,988 ? -18.7°
Enters shadow 20:25:28 17° 42° (NE) 1,588 ? -18.9°
